Regional Weather Roundup
Issued by NWS Charleston, WV

Home | Current Version | Previous Version | Graphics & Text | Print | Product List | Glossary On
Versions: 1 2 3 4 5 6 7 8 9 10 11 12 13 14 15 16 17 18 19 20 21 22 23 24 25 26 27 28 29 30 31 32 33 34 35 36 37 38 39 40 41 42 43 44 45 46 47 48 49 50
000
ASUS41 KRLX 070310
RWRRLX
West Virginia Regional Weather Roundup
National Weather Service Charleston WV
1000 PM EST TUE DEC 06 2016

Note: "fair" indicates few or no clouds below 12,000 feet with no
significant weather and/or obstructions to visibility.

WVZ003-070400-
Northern Panhandle of West Virginia

CITY           SKY/WX    TMP DP  RH WIND       PRES   REMARKS
WHEELING       CLOUDY    43  41  93 W9        29.77R
$$

WVZ009-070400-
Northwest West Virginia

CITY           SKY/WX    TMP DP  RH WIND       PRES   REMARKS
PARKERSBURG    CLOUDY    44  40  85 W14G23    29.88R
$$

WVZ006-070400-
Western West Virginia

CITY           SKY/WX    TMP DP  RH WIND       PRES   REMARKS
HUNTINGTON     CLOUDY    45  40  82 W7        29.92R
$$

WVZ015-070400-
West Central West Virginia

CITY           SKY/WX    TMP DP  RH WIND       PRES   REMARKS
CHARLESTON     CLOUDY    47  43  86 W10G20    29.88R
$$

WVZ022-031-070400-
North Central West Virginia

CITY           SKY/WX    TMP DP  RH WIND       PRES   REMARKS
CLARKSBURG     CLOUDY    43  42  97 SW7       29.81R FOG
MORGANTOWN     CLOUDY    44  40  85 S3        29.81R FOG
$$

WVZ025-035-042-045-070400-
Southern West Virginia

CITY           SKY/WX    TMP DP  RH WIND       PRES   REMARKS
BECKLEY        CLOUDY    42  41  96 W8        29.85R FOG
LOGAN          CLOUDY    46  43  87 VRB5G15   29.89R
BLUEFIELD      CLOUDY    42  41  96 W9G20     29.86R FOG
LEWISBURG      CLOUDY    35  35  99 CALM      29.83R FOG
$$

WVZ047-070400-
Northern Mountains of West Virginia

CITY           SKY/WX    TMP DP  RH WIND       PRES   REMARKS
ELKINS         LGT RAIN  42  40  92 CALM      29.81R FOG
$$

WVZ052-070400-
Eastern Panhandle of West Virginia

CITY           SKY/WX    TMP DP  RH WIND       PRES   REMARKS
MARTINSBURG    CLOUDY    37  36  96 CALM      29.84S FOG
PETERSBURG     CLOUDY    38  37  98 CALM      29.85S FOG
$$




USA.gov is the U.S. government's official web portal to all federal, state and local government web resources and services.